カタログに戻る

COSMOS 2307

GLONASS

LostナビゲーションMEO
NORAD 23511·PAYLOAD·🇷🇺 Russia

打ち上げ Mar 7, 1995 から Baikonur Cosmodrome

Loading…

次のパス (今後24時間)

TLE

古いSource: Space-Track

元期: Aug 3, 2026, 16:23 UTC

1 23511U 95009A   26215.68275075 -.00000028  00000-0  00000+0 0  9991
2 23511  63.9827 299.5482 0006228 139.3928 220.7980  2.13105844244210

AllMySatでCOSMOS 2307をリアルタイム追跡

Download on the App Store